Regional Weather Roundup
Issued by NWS

Home | Current Version | Previous Version | Text Only | Print | Product List | Glossary On
Versions: 1 2 3 4 5 6 7 8 9 10 11 12 13 14 15 16 17 18 19 20 21 22 23 24 25 26 27 28 29 30 31 32 33 34 35 36 37 38 39 40 41 42 43 44 45 46 47 48 49 50
303
ASUS45 KBOI 290810
RWRID

IDAHO REGIONAL WEATHER ROUNDUP
NATIONAL WEATHER SERVICE BOISE ID
200 AM MDT SUN MAY 29 2016

NOTE: "FAIR" INDICATES FEW OR NO CLOUDS BELOW 12000 FEET
WITH NO SIGNIFICANT WEATHER AND/OR OBSTRUCTIONS TO VISIBILITY

IDZ012-014-290900-
SOUTHWEST IDAHO


CITY           SKY/WX    TMP DP  RH WIND       PRES   REMARKS
BOISE          PTCLDY    53  36  52 SE7       30.02S
CALDWELL       PTCLDY    46  38  73 NE6       30.01S
MOUNTAIN HOME  CLEAR     51  34  53 S5        30.03S
$$

IDZ016-017-290900-
SOUTHCENTRAL IDAHO


CITY           SKY/WX    TMP DP  RH WIND       PRES   REMARKS
BURLEY         CLEAR     45  37  73 CALM      30.07S
JEROME         CLEAR     48  34  58 E7        30.07F
TWIN FALLS     CLEAR     46  33  60 SW7       30.07F
$$

IDZ019>023-290900-
SOUTHEAST IDAHO


CITY           SKY/WX    TMP DP  RH WIND       PRES   REMARKS
IDAHO FALLS    CLEAR     41  33  73 CALM      30.11F
POCATELLO      CLEAR     42  35  76 E6        30.10F
REXBURG        CLEAR     42  32  67 NE7       30.12R
$$

IDZ006-010-011-018-031-032-290900-
CENTRAL IDAHO MOUNTAINS


CITY           SKY/WX    TMP DP  RH WIND       PRES   REMARKS
MCCALL         PTCLDY    40  33  76 CALM      30.09S
HAILEY         CLEAR     41  34  75 NW8       30.14S
STANLEY          N/A     32  24  72 SE3       30.16S
SALMON         CLEAR     41  34  75 CALM      30.07R
CHALLIS        CLEAR     45  30  55 CALM      30.09R
$$

IDZ002-004-006-007-026-290900-
NORTHERN IDAHO


CITY           SKY/WX    TMP DP  RH WIND       PRES   REMARKS
LEWISTON       CLEAR     52  42  69 S5        30.00S
LOWELL           N/A     49  44  83 N5        30.07R
COEUR D`ALENE  PTCLDY    45  37  76 E3        30.00S
MULLAN PASS    MOCLDY    40  31  70 SW3       30.07F
$$




USA.gov is the U.S. government's official web portal to all federal, state and local government web resources and services.